This demonstration page uses our WeatherBlox Daily Observations layout. Learn more.

Hourly Observations for December 31, 2017

Temp ( °F °C ) Dew Point ( °F °C ) Humidity (%) Winds ( mph kmh ) Pressure ( in mb ) Visibility ( mi km ) Precip ( " mm )
12:15 am 00:15 Cloudy 0 -17.8 -5 -20.4 80 80 ENE 7 11 30.74 1041 10 16.09344 0 0
12:35 am 00:35 Cloudy 0 -17.8 -5 -20.5 80 80 NE 8 13 30.74 1041 10 16.09344 0 0
12:55 am 00:55 Cloudy 0 -17.8 -5 -20.4 80 80 NE 8 13 30.74 1041 10 16.09344 0 0
1:15 am 01:15 Cloudy 0 -17.8 -5 -20.4 80 80 NE 6 9 30.74 1041 10 16.09344 0 0
1:35 am 01:35 Cloudy 0 -17.8 -5 -20.5 80 80 NNE 7 11 30.77 1042 10 16.09344 0 0
1:55 am 01:55 Cloudy 0 -17.7 -4 -20.2 81 81 NE 8 13 30.77 1042 10 16.09344 0 0
2:15 am 02:15 Cloudy 0 -17.6 -4 -20 82 82 NNE 8 13 30.77 1042 10 16.09344 0 0
2:35 am 02:35 Cloudy 0 -17.7 -5 -20.3 80 80 NNE 10 17 30.77 1042 10 16.09344 0 0
2:55 am 02:55 Cloudy 0 -18 -5 -20.4 82 82 NNE 10 17 30.77 1042 10 16.09344 0 0
3:15 am 03:15 Partly Cloudy 0 -18 -5 -20.5 81 81 NNE 10 17 30.77 1042 10 16.09344 0 0
3:35 am 03:35 Clear -1 -18.3 -5 -20.8 81 81 NNE 10 17 30.77 1042 10 16.09344 0 0
3:55 am 03:55 Clear -1 -18.4 -6 -21 80 80 N 10 17 30.8 1043 10 16.09344 0 0
4:15 am 04:15 Clear -1 -18.5 -6 -21 81 81 N 10 17 30.8 1043 10 16.09344 0 0
4:35 am 04:35 Clear -1 -18.5 -6 -21.1 80 80 NNE 10 17 30.8 1043 10 16.09344 0 0
4:55 am 04:55 Clear -1 -18.5 -6 -21 81 81 NNE 12 19 30.8 1043 10 16.09344 0 0
5:15 am 05:15 Clear -2 -18.7 -6 -21.2 81 81 NNE 12 19 30.8 1043 10 16.09344 0 0
5:35 am 05:35 Clear -2 -19 -7 -21.5 81 81 NNE 12 19 30.86 1045 10 16.09344 0 0
5:55 am 05:55 Clear -3 -19.5 -8 -22 81 81 NNE 9 15 30.86 1045 10 16.09344 0 0
6:15 am 06:15 Clear -4 -20.2 -9 -22.5 82 82 NNE 8 13 30.86 1045 10 16.09344 0 0
6:35 am 06:35 Clear -6 -21.2 -10 -23.5 82 82 N 8 13 30.92 1047 10 16.09344 0 0
6:55 am 06:55 Clear -7 -21.8 -11 -24 82 82 NNE 9 15 30.92 1047 10 16.09344 0 0
7:15 am 07:15 Clear -8 -22.2 -12 -24.4 82 82 NNE 8 13 30.92 1047 10 16.09344 0 0
7:35 am 07:35 Partly Cloudy -9 -22.7 -13 -25 82 82 NNE 10 17 30.95 1048 10 16.09344 0 0
7:55 am 07:55 Mostly Cloudy -9 -22.9 -13 -25.1 82 82 N 8 13 30.95 1048 10 16.09344 0 0
8:15 am 08:15 Partly Cloudy -10 -23.1 -14 -25.3 82 82 NNE 7 11 31.01 1050 10 16.09344 0 0
8:35 am 08:35 Sunny -9 -23 -13 -25.2 82 82 NNE 6 9 31.01 1050 10 16.09344 0 0
8:55 am 08:55 Sunny -9 -22.6 -13 -25 81 81 NNE 6 9 30.98 1049 10 16.09344 0 0
9:15 am 09:15 Mostly Cloudy -8 -22.1 -12 -24.5 81 81 NNE 7 11 30.98 1049 10 16.09344 0 0
9:35 am 09:35 Mostly Cloudy -8 -22 -12 -24.5 80 80 NNE 9 15 30.98 1049 10 16.09344 0 0
9:55 am 09:55 Mostly Cloudy -7 -21.9 -12 -24.4 80 80 NNE 9 15 30.98 1049 10 16.09344 0 0
10:15 am 10:15 Partly Cloudy -6 -21 -11 -23.9 78 78 N 13 20 31.01 1050 10 16.09344 0 0
10:35 am 10:35 Sunny -5 -20.6 -11 -23.8 76 76 N 13 20 31.01 1050 10 16.09344 0 0
10:55 am 10:55 Sunny -4 -20.2 -10 -23.6 74 74 N 12 19 31.01 1050 10 16.09344 0 0
11:15 am 11:15 Sunny -4 -19.8 -10 -23.5 73 73 N 12 19 30.98 1049 10 16.09344 0 0
11:35 am 11:35 Sunny -3 -19.7 -10 -23.5 72 72 N 14 22 30.98 1049 10 16.09344 0 0
11:55 am 11:55 Sunny -3 -19.2 -10 -23.1 71 71 N 13 20 30.98 1049 10 16.09344 0 0
12:15 pm 12:15 Sunny -2 -19 -9 -22.9 71 71 N 10 17 30.98 1049 10 16.09344 0 0
12:35 pm 12:35 Partly Cloudy -2 -18.8 -9 -23 70 70 N 10 17 30.98 1049 10 16.09344 0 0
12:55 pm 12:55 Partly Cloudy -1 -18.5 -9 -22.5 71 71 N 9 15 30.98 1049 10 16.09344 0 0
1:15 pm 13:15 Sunny -1 -18.5 -9 -22.7 70 70 N 7 11 30.98 1049 10 16.09344 0 0
1:35 pm 13:35 Sunny -1 -18.1 -8 -22.4 69 69 N 7 11 30.98 1049 10 16.09344 0 0
1:55 pm 13:55 Sunny 0 -18 -9 -22.5 68 68 N 9 15 30.98 1049 10 16.09344 0 0
2:15 pm 14:15 Sunny 0 -17.9 -8 -22.4 68 68 N 9 15 30.95 1048 10 16.09344 0 0
2:35 pm 14:35 Sunny 0 -17.8 -8 -22.3 68 68 N 6 9 30.98 1049 10 16.09344 0 0
2:55 pm 14:55 Partly Cloudy 0 -17.7 -8 -22.1 69 69 N 7 11 30.92 1047 10 16.09344 0 0
3:15 pm 15:15 Sunny 0 -17.8 -8 -22.2 69 69 N 9 15 30.98 1049 10 16.09344 0 0
3:35 pm 15:35 Sunny 0 -17.8 -8 -22.1 69 69 N 9 15 30.98 1049 10 16.09344 0 0
3:55 pm 15:55 Sunny 0 -18 -8 -22.4 69 69 N 10 17 30.98 1049 10 16.09344 0 0
4:15 pm 16:15 Sunny -1 -18.2 -9 -22.5 69 69 NNE 13 20 30.95 1048 10 16.09344 0 0
4:35 pm 16:35 Sunny -1 -18.5 -9 -22.5 71 71 NNE 9 15 30.98 1049 10 16.09344 0 0
4:55 pm 16:55 Sunny -2 -19 -9 -22.6 73 73 NE 10 17 30.95 1048 10 16.09344 0 0
5:15 pm 17:15 Sunny -3 -19.3 -9 -23 73 73 NNE 7 11 30.98 1049 10 16.09344 0 0
5:35 pm 17:35 Clear -5 -20.5 -10 -23.6 76 76 NNE 6 9 31.01 1050 10 16.09344 0 0
6:15 pm 18:15 Clear -5 -20.5 -10 -23.6 76 76 N 5 7 31.01 1050 10 16.09344 0 0
6:35 pm 18:35 Clear -7 -21.6 -12 -24.6 77 77 N 6 9 31.01 1050 10 16.09344 0 0
6:55 pm 18:55 Clear -6 -21.3 -12 -24.5 76 76 NNW 5 7 31.04 1051 10 16.09344 0 0
7:15 pm 19:15 Clear -6 -21.3 -11 -24.1 78 78 NNW 6 9 31.04 1051 10 16.09344 0 0
7:35 pm 19:35 Clear -7 -21.6 -12 -24.5 78 78 NNW 5 7 31.04 1051 10 16.09344 0 0
7:55 pm 19:55 Clear -6 -21.2 -11 -24 78 78 NNW 5 7 31.04 1051 10 16.09344 0 0
8:15 pm 20:15 Clear -7 -21.6 -12 -24.5 78 78 Calm 31.04 1051 10 16.09344 0 0
8:35 pm 20:35 Clear -9 -22.6 -13 -25.1 80 80 NNW 3 6 31.07 1052 10 16.09344 0 0
8:55 pm 20:55 Clear -6 -21.2 -11 -24 78 78 N 5 7 31.04 1051 10 16.09344 0 0
9:15 pm 21:15 Clear -8 -22.1 -13 -25.1 77 77 N 5 7 31.04 1051 10 16.09344 0 0
9:35 pm 21:35 Clear -9 -22.7 -14 -25.4 79 79 Calm 31.07 1052 10 16.09344 0 0
9:55 pm 21:55 Clear -10 -23.2 -14 -25.6 81 81 N 3 6 31.07 1052 10 16.09344 0 0
10:15 pm 22:15 Clear -9 -22.6 -13 -25.1 80 80 Calm 31.07 1052 10 16.09344 0 0
10:35 pm 22:35 Clear -10 -23.1 -14 -25.4 82 82 Calm 31.1 1053 10 16.09344 0 0
10:55 pm 22:55 Clear -8 -22.2 -12 -24.5 82 82 Calm 31.1 1053 10 16.09344 0 0
11:15 pm 23:15 Clear -10 -23.2 -14 -25.7 80 80 Calm 31.1 1053 10 16.09344 0 0
11:35 pm 23:35 Clear -11 -23.8 -15 -26.1 81 81 Calm 31.1 1053 10 16.09344 0 0
11:55 pm 23:55 Mostly Cloudy -11 -23.7 -15 -26 81 81 Calm 31.1 1053 10 16.09344 0 0

Powered by AerisWeather